Total_Precipitation_Accumulation
0.00 0.00 0.00 0.00 0.00 0.00 0.01 0.03 0.06 0.08 0.01 0.00 0.00 0.00 0.00 0.00 0.00 0.00 0.00 0.00 0.00 0.00 0.00 0.02 0.02 0.01 0.00 0.00 0.01 0.02 0.02 0.02 0.02 0.04 0.04 0.02 0.02 0.02 0.02 0.03 0.08 0.11 0.09 0.05 0.03 0.02 0.02 0.02 0.02
0.00 0.00 0.00 0.00 0.00 0.00 0.01 0.02 0.08 0.12 0.01 0.00 0.00 0.00 0.00 0.00 0.00 0.00 0.00 0.00 0.00 0.00 0.00 0.01 0.02 0.01 0.01 0.00 0.00 0.01 0.01 0.01 0.02 0.03 0.03 0.02 0.01 0.02 0.02 0.03 0.06 0.09 0.07 0.06 0.03 0.02 0.02 0.01 0.01
0.00 0.00 0.00 0.00 0.00 0.00 0.01 0.06 0.05 0.04 0.01 0.01 0.00 0.00 0.00 0.00 0.00 0.00 0.00 0.00 0.00 0.00 0.00 0.02 0.02 0.01 0.01 0.00 0.01 0.01 0.01 0.01 0.01 0.01 0.01 0.02 0.03 0.03 0.03 0.03 0.04 0.05 0.03 0.04 0.04 0.03 0.02 0.01 0.01
0.00 0.00 0.00 0.00 0.00 0.00 0.02 0.08 0.03 0.04 0.04 0.02 0.00 0.00 0.00 0.00 0.00 0.00 0.00 0.00 0.00 0.00 0.00 0.02 0.02 0.01 0.01 0.01 0.01 0.01 0.01 0.00 0.00 0.00 0.01 0.01 0.02 0.03 0.04 0.04 0.06 0.08 0.07 0.05 0.05 0.05 0.06 0.04 0.02
0.00 0.00 0.00 0.00 0.00 0.00 0.04 0.10 0.05 0.09 0.06 0.01 0.00 0.00 0.00 0.00 0.00 0.00 0.00 0.00 0.00 0.00 0.01 0.02 0.01 0.01 0.01 0.01 0.01 0.01 0.01 0.00 0.00 0.00 0.00 0.01 0.01 0.02 0.03 0.04 0.04 0.05 0.08 0.08 0.08 0.08 0.06 0.08 0.07
0.00 0.00 0.00 0.00 0.00 0.00 0.02 0.07 0.10 0.15 0.14 0.04 0.01 0.00 0.00 0.00 0.00 0.00 0.00 0.00 0.00 0.00 0.01 0.01 0.02 0.01 0.01 0.01 0.01 0.01 0.01 0.00 0.00 0.00 0.00 0.00 0.01 0.01 0.02 0.03 0.03 0.01 0.02 0.04 0.07 0.11 0.09 0.07 0.11
0.00 0.00 0.00 0.00 0.00 0.00 0.01 0.03 0.09 0.23 0.30 0.18 0.09 0.01 0.00 0.00 0.00 0.00 0.00 0.00 0.00 0.00 0.00 0.01 0.01 0.01 0.01 0.01 0.01 0.01 0.01 0.00 0.00 0.00 0.00 0.00 0.00 0.01 0.01 0.01 0.01 0.00 0.00 0.02 0.02 0.03 0.04 0.05 0.08
0.00 0.00 0.00 0.00 0.00 0.00 0.01 0.02 0.05 0.12 0.27 0.23 0.19 0.05 0.00 0.00 0.00 0.00 0.00 0.00 0.01 0.01 0.00 0.01 0.01 0.01 0.01 0.00 0.01 0.01 0.01 0.00 0.00 0.00 0.00 0.00 0.00 0.00 0.00 0.00 0.00 0.00 0.00 0.00 0.01 0.01 0.02 0.03 0.05
0.00 0.00 0.00 0.00 0.00 0.00 0.01 0.01 0.04 0.11 0.14 0.12 0.18 0.13 0.02 0.00 0.00 0.00 0.01 0.01 0.01 0.01 0.01 0.01 0.00 0.00 0.00 0.00 0.00 0.00 0.00 0.00 0.00 0.00 0.00 0.00 0.00 0.00 0.00 0.00 0.00 0.01 0.02 0.04 0.04 0.04 0.04 0.04 0.04
0.00 0.00 0.00 0.00 0.00 0.00 0.00 0.00 0.01 0.07 0.13 0.13 0.11 0.12 0.05 0.00 0.00 0.00 0.00 0.01 0.01 0.01 0.01 0.01 0.00 0.00 0.01 0.01 0.00 0.00 0.00 0.00 0.00 0.00 0.00 0.00 0.00 0.00 0.00 0.00 0.03 0.07 0.11 0.14 0.20 0.21 0.14 0.10 0.09
0.00 0.00 0.00 0.00 0.00 0.00 0.00 0.00 0.00 0.01 0.06 0.08 0.04 0.06 0.04 0.01 0.00 0.00 0.00 0.00 0.00 0.00 0.00 0.00 0.00 0.01 0.01 0.01 0.01 0.00 0.00 0.00 0.00 0.00 0.00 0.00 0.00 0.00 0.00 0.00 0.02 0.06 0.07 0.09 0.16 0.17 0.13 0.11 0.12
0.00 0.00 0.00 0.00 0.00 0.00 0.00 0.00 0.00 0.03 0.08 0.11 0.08 0.19 0.17 0.02 0.00 0.00 0.00 0.00 0.00 0.00 0.00 0.00 0.00 0.01 0.01 0.00 0.00 0.00 0.00 0.00 0.00 0.00 0.00 0.00 0.00 0.00 0.01 0.02 0.01 0.03 0.05 0.08 0.09 0.07 0.05 0.04 0.06
0.00 0.00 0.00 0.00 0.00 0.00 0.00 0.00 0.00 0.04 0.13 0.18 0.16 0.16 0.20 0.05 0.01 0.00 0.00 0.00 0.00 0.00 0.00 0.00 0.00 0.01 0.01 0.01 0.00 0.00 0.00 0.00 0.00 0.00 0.00 0.00 0.00 0.02 0.04 0.06 0.08 0.06 0.03 0.04 0.06 0.04 0.03 0.03 0.03
0.00 0.00 0.00 0.00 0.00 0.00 0.00 0.00 0.00 0.02 0.07 0.13 0.15 0.18 0.16 0.08 0.02 0.01 0.00 0.00 0.00 0.00 0.00 0.00 0.00 0.00 0.01 0.00 0.00 0.00 0.00 0.00 0.00 0.00 0.00 0.00 0.01 0.06 0.09 0.08 0.10 0.09 0.06 0.06 0.07 0.06 0.05 0.03 0.02
0.00 0.00 0.00 0.00 0.00 0.00 0.00 0.00 0.00 0.01 0.03 0.07 0.11 0.16 0.14 0.06 0.02 0.01 0.01 0.00 0.00 0.00 0.00 0.00 0.00 0.00 0.00 0.00 0.00 0.00 0.00 0.00 0.00 0.00 0.00 0.01 0.02 0.10 0.12 0.09 0.08 0.11 0.11 0.12 0.12 0.09 0.07 0.03 0.01
0.00 0.00 0.00 0.00 0.00 0.00 0.00 0.00 0.00 0.01 0.02 0.04 0.05 0.08 0.11 0.12 0.05 0.01 0.01 0.02 0.04 0.02 0.01 0.00 0.01 0.01 0.00 0.01 0.01 0.01 0.01 0.01 0.01 0.00 0.01 0.01 0.03 0.08 0.14 0.10 0.06 0.10 0.13 0.12 0.14 0.10 0.06 0.03 0.02
0.00 0.00 0.00 0.00 0.00 0.00 0.00 0.00 0.00 0.02 0.02 0.03 0.03 0.03 0.04 0.08 0.07 0.03 0.03 0.06 0.09 0.05 0.03 0.02 0.01 0.02 0.04 0.06 0.08 0.04 0.04 0.03 0.03 0.03 0.04 0.05 0.05 0.07 0.15 0.14 0.12 0.09 0.13 0.10 0.07 0.04 0.04 0.03 0.04
0.00 0.00 0.00 0.00 0.00 0.00 0.00 0.00 0.00 0.02 0.03 0.05 0.07 0.09 0.10 0.11 0.11 0.08 0.07 0.14 0.16 0.13 0.12 0.09 0.09 0.14 0.26 0.33 0.28 0.20 0.13 0.09 0.09 0.08 0.08 0.07 0.09 0.11 0.18 0.18 0.19 0.13 0.14 0.15 0.10 0.08 0.08 0.05 0.04
0.00 0.00 0.00 0.00 0.00 0.00 0.00 0.00 0.01 0.03 0.07 0.12 0.19 0.23 0.24 0.21 0.17 0.17 0.23 0.32 0.28 0.24 0.29 0.27 0.32 0.49 0.57 0.48 0.46 0.44 0.38 0.28 0.21 0.15 0.13 0.12 0.11 0.16 0.24 0.22 0.27 0.21 0.19 0.25 0.15 0.10 0.07 0.07 0.04
0.00 0.00 0.00 0.00 0.00 0.00 0.00 0.00 0.02 0.05 0.07 0.07 0.12 0.17 0.15 0.19 0.21 0.27 0.43 0.48 0.41 0.41 0.54 0.68 0.89 0.99 0.86 0.83 0.84 0.79 0.73 0.54 0.39 0.29 0.24 0.20 0.18 0.19 0.21 0.30 0.30 0.24 0.22 0.29 0.24 0.15 0.09 0.10 0.09
0.00 0.00 0.00 0.00 0.00 0.00 0.00 0.00 0.02 0.08 0.13 0.15 0.13 0.14 0.13 0.12 0.13 0.19 0.35 0.52 0.68 0.78 0.93 1.11 1.29 1.25 1.06 0.99 0.93 0.83 0.79 0.68 0.57 0.49 0.35 0.27 0.25 0.26 0.26 0.26 0.33 0.27 0.25 0.29 0.33 0.22 0.17 0.20 0.16
0.00 0.00 0.00 0.00 0.00 0.00 0.00 0.00 0.01 0.03 0.06 0.11 0.16 0.17 0.12 0.09 0.13 0.21 0.32 0.54 0.84 1.14 1.39 1.51 1.51 1.39 1.22 1.10 1.00 0.93 0.84 0.68 0.55 0.45 0.34 0.29 0.29 0.31 0.30 0.30 0.31 0.30 0.29 0.28 0.30 0.29 0.29 0.23 0.17
0.00 0.00 0.00 0.00 0.00 0.00 0.00 0.00 0.00 0.00 0.01 0.03 0.09 0.15 0.16 0.19 0.24 0.31 0.43 0.62 0.74 0.96 1.19 1.35 1.36 1.26 1.10 0.99 0.88 0.76 0.63 0.51 0.43 0.35 0.28 0.26 0.31 0.29 0.31 0.31 0.34 0.36 0.36 0.33 0.34 0.35 0.33 0.23 0.18
0.00 0.00 0.00 0.00 0.00 0.00 0.00 0.00 0.00 0.01 0.01 0.02 0.07 0.13 0.19 0.31 0.35 0.41 0.54 0.68 0.71 0.74 0.84 0.93 0.97 0.92 0.83 0.73 0.65 0.65 0.62 0.56 0.48 0.41 0.33 0.31 0.28 0.25 0.25 0.27 0.33 0.35 0.32 0.29 0.29 0.31 0.30 0.23 0.19
0.00 0.01 0.02 0.01 0.00 0.00 0.00 0.00 0.01 0.01 0.02 0.04 0.06 0.13 0.24 0.41 0.51 0.62 0.73 0.79 0.83 0.77 0.74 0.76 0.76 0.68 0.56 0.47 0.40 0.41 0.41 0.41 0.40 0.38 0.34 0.33 0.31 0.29 0.25 0.25 0.21 0.17 0.14 0.16 0.18 0.18 0.20 0.18 0.20
0.03 0.05 0.09 0.05 0.01 0.00 0.01 0.02 0.02 0.01 0.02 0.07 0.10 0.15 0.28 0.44 0.54 0.69 0.78 0.67 0.57 0.51 0.50 0.49 0.44 0.35 0.27 0.26 0.25 0.25 0.25 0.27 0.27 0.28 0.29 0.29 0.29 0.26 0.20 0.15 0.10 0.07 0.07 0.09 0.14 0.22 0.20 0.22 0.24
0.11 0.14 0.11 0.12 0.06 0.04 0.03 0.05 0.02 0.03 0.04 0.08 0.16 0.23 0.29 0.36 0.40 0.42 0.41 0.41 0.40 0.37 0.32 0.26 0.21 0.17 0.14 0.14 0.15 0.16 0.16 0.17 0.17 0.17 0.18 0.18 0.17 0.14 0.10 0.08 0.06 0.05 0.05 0.06 0.10 0.21 0.18 0.18 0.24
0.11 0.20 0.23 0.22 0.18 0.12 0.08 0.10 0.09 0.06 0.06 0.08 0.20 0.47 0.46 0.33 0.32 0.33 0.34 0.34 0.31 0.25 0.19 0.14 0.14 0.14 0.12 0.09 0.10 0.09 0.09 0.08 0.09 0.11 0.10 0.09 0.07 0.05 0.04 0.04 0.04 0.03 0.03 0.04 0.08 0.15 0.24 0.21 0.24
0.16 0.21 0.23 0.23 0.22 0.18 0.13 0.12 0.09 0.20 0.14 0.11 0.21 0.35 0.33 0.21 0.15 0.14 0.14 0.15 0.18 0.23 0.22 0.13 0.10 0.09 0.07 0.04 0.03 0.02 0.02 0.02 0.02 0.02 0.02 0.02 0.01 0.01 0.01 0.01 0.01 0.01 0.01 0.01 0.03 0.07 0.17 0.20 0.20
0.12 0.21 0.23 0.21 0.18 0.16 0.12 0.14 0.08 0.17 0.13 0.10 0.18 0.16 0.13 0.08 0.05 0.04 0.04 0.05 0.07 0.10 0.10 0.07 0.05 0.04 0.03 0.02 0.01 0.00 0.00 0.00 0.00 0.00 0.00 0.00 0.00 0.00 0.00 0.00 0.00 0.00 0.01 0.01 0.01 0.02 0.05 0.12 0.17